Vorticity
5 6 6 7 6 6 5 6 9 8 8 9 9 6 8 4 4 6 6 6 6 6 5 6 6 5 6 7 10 9 5 8 7 7 5 5 6 7 7 6 4 7 6 8
7 8 6 6 6 5 7 9 8 9 9 8 8 6 5 5 3 9 8 5 9 6 4 7 5 7 9 9 10 7 8 10 9 8 7 8 7 5 5 7 8 5 7 6
7 7 7 4 5 9 8 6 7 6 6 5 6 6 5 4 9 -1 13 4 2 3 7 9 10 8 8 10 12 10 7 6 7 7 6 5 5 8 12 12 8 5 6 5
6 4 5 9 10 5 7 6 5 5 4 4 4 8 3 2 4 2 7 3 8 5 6 12 14 14 15 14 13 10 6 6 7 8 9 6 11 12 11 5 4 7 7 6
8 7 7 7 6 6 4 5 5 4 4 5 3 7 2 3 2 6 7 8 4 6 6 8 15 14 14 12 10 7 5 4 6 8 6 8 3 2 4 7 8 12 8 8
7 8 4 4 7 5 6 5 4 4 4 4 1 2 3 3 7 5 4 3 6 9 11 16 15 11 10 10 11 12 14 13 7 4 3 5 7 7 8 13 9 5 2 7
5 7 6 3 4 6 5 4 5 5 4 4 4 6 5 8 6 7 2 1 8 16 18 17 11 12 7 8 10 12 12 7 4 3 14 12 6 9 8 5 5 1 -5 14
6 7 5 6 4 4 4 5 4 7 5 4 6 1 4 5 7 7 -1 5 15 18 20 11 11 8 6 8 7 5 4 9 8 10 9 13 13 10 20 19 4 -5 6 6
7 5 4 4 4 4 5 5 5 6 4 3 2 2 3 5 2 8 3 12 17 19 12 9 7 5 4 6 6 7 8 8 10 9 7 6 6 -2 6 12 5 12 6 8
4 6 5 6 7 6 4 3 4 5 6 7 1 3 6 8 7 7 12 21 14 10 6 3 4 6 8 8 9 8 4 4 7 8 7 5 1 3 7 2 11 11 5 11
7 6 6 5 6 5 3 1 4 6 3 8 12 2 13 10 12 13 14 13 6 7 5 4 5 6 6 9 8 1 1 6 10 7 13 -4 -2 5 5 10 10 10 17 10
6 7 8 8 4 3 2 4 9 10 11 7 6 -1 12 12 12 14 23 6 6 9 6 6 10 8 7 10 4 2 3 8 12 12 11 6 8 -0 7 6 16 -1 -11 11
8 3 0 -1 4 10 11 14 16 16 11 7 11 3 11 5 13 17 10 9 11 7 7 8 9 7 9 9 5 2 1 9 16 9 4 14 2 0 16 25 11 -1 3 2
6 3 8 8 14 12 11 8 6 7 4 11 2 11 5 18 14 12 14 10 5 7 8 8 9 6 7 6 3 -1 3 9 7 6 2 9 13 11 12 6 16 24 23 9
9 7 7 6 5 6 6 4 6 5 9 2 8 10 9 6 4 11 8 9 10 7 5 4 4 7 10 7 2 7 13 -1 7 12 11 11 14 13 21 -0 27 -1 14 2
6 6 12 6 8 5 7 2 7 5 8 14 15 0 9 8 10 7 7 7 9 5 5 5 8 10 10 9 10 11 15 16 15 6 18 7 8 23 6 5 21 20 9 6
12 10 12 3 13 9 3 9 8 7 10 2 1 8 10 18 8 2 8 6 4 1 -1 15 15 13 11 18 12 19 18 6 11 18 8 9 7 11 11 13 11 2 10 12
6 4 10 10 14 18 31 2 21 24 16 27 12 24 1 12 15 12 9 4 11 22 29 4 12 12 18 17 16 16 12 5 6 5 13 17 15 18 19 13 13 8 -10 -5
10 22 18 18 -1 11 -3 -14 25 -5 12 9 -21 -13 32 21 30 50 24 32 19 30 24 10 1 17 10 -3 11 9 4 25 24 21 19 8 6 4 3 5 1 10 14 16
-7 6 0 13 20 46 50 28 41 20 4 22 17 29 46 36 -2 -2 13 9 13 -0 15 29 3 18 18 10 19 27 25 10 -1 -4 1 7 10 4 11 3 12 9 9 8
31 30 -1 21 -18 -12 -33 -23 -4 34 22 24 28 25 23 15 15 13 21 19 25 16 11 6 11 13 18 19 25 4 -4 1 -2 13 11 12 11 14 11 10 10 14 14 7
31 37 40 28 22 -0 -2 20 26 17 -3 4 -10 -1 7 -3 17 13 15 32 9 14 22 15 24 23 18 -0 4 3 -10 3 12 10 8 4 3 9 14 16 12 8 11 15
28 6 7 14 25 33 50 44 40 30 -24 20 33 20 32 16 19 10 8 3 20 15 8 9 4 6 5 11 5 -10 19 11 8 8 11 13 15 11 9 9 11 14 14 16
27 29 27 -1 20 11 16 39 24 25 11 -6 12 19 10 19 8 2 4 10 23 12 5 6 3 4 2 7 17 10 5 11 10 7 9 9 10 15 17 16 12 15 16 9
37 21 13 30 31 30 9 19 15 18 22 22 23 9 10 6 16 10 7 3 5 7 8 9 11 10 10 9 11 10 6 7 7 13 19 16 15 13 11 11 13 11 8 7
-0 51 2 -26 -3 11 4 9 20 6 7 2 7 16 7 5 8 7 7 8 8 8 7 8 9 11 10 4 4 6 7 11 20 22 15 11 10 10 8 6 7 9 8 7
Height
5787 5787 5785 5784 5782 5782 5780 5778 5777 5775 5772 5771 5771 5773 5773 5769 5765 5764 5763 5762 5759 5757 5755 5753 5750 5748 5745 5742 5740 5737 5736 5734 5733 5732 5731 5730 5729 5728 5728 5727 5725 5723 5722 5721
5781 5781 5777 5777 5776 5774 5772 5771 5770 5768 5766 5764 5764 5766 5765 5764 5760 5759 5756 5754 5751 5749 5747 5745 5742 5739 5736 5734 5731 5729 5728 5726 5724 5723 5722 5721 5720 5719 5718 5717 5716 5714 5713 5712
5773 5774 5771 5769 5768 5766 5764 5764 5762 5760 5759 5757 5754 5757 5758 5756 5752 5750 5747 5744 5742 5739 5736 5734 5731 5728 5725 5723 5721 5720 5718 5716 5715 5714 5712 5711 5710 5709 5708 5707 5706 5705 5704 5703
5766 5766 5764 5761 5761 5758 5756 5755 5753 5751 5749 5747 5747 5744 5749 5745 5741 5740 5737 5734 5731 5728 5725 5722 5719 5717 5714 5712 5710 5709 5708 5707 5705 5703 5702 5701 5700 5699 5698 5697 5696 5695 5694 5693
5760 5757 5755 5754 5753 5750 5749 5746 5744 5742 5740 5737 5739 5734 5739 5735 5730 5725 5722 5720 5718 5716 5712 5709 5707 5705 5703 5702 5700 5699 5697 5695 5694 5693 5691 5690 5689 5689 5688 5686 5685 5684 5683 5681
5750 5748 5747 5746 5743 5741 5739 5737 5733 5731 5730 5727 5728 5725 5725 5726 5723 5719 5713 5709 5707 5704 5700 5696 5694 5692 5692 5690 5689 5687 5686 5685 5684 5683 5682 5680 5679 5677 5675 5674 5673 5672 5672 5670
5740 5739 5738 5736 5734 5732 5730 5727 5722 5719 5718 5716 5715 5712 5717 5714 5708 5707 5704 5699 5695 5690 5687 5685 5683 5682 5680 5679 5678 5677 5676 5675 5674 5673 5670 5668 5666 5664 5663 5662 5661 5661 5659 5659
5727 5728 5728 5727 5724 5721 5718 5716 5713 5706 5703 5703 5701 5699 5704 5700 5695 5693 5691 5688 5683 5679 5676 5674 5672 5670 5669 5667 5666 5665 5665 5663 5661 5659 5657 5655 5654 5652 5650 5650 5648 5647 5646 5645
5714 5714 5715 5714 5712 5710 5707 5703 5701 5692 5689 5687 5689 5688 5687 5685 5681 5680 5678 5674 5670 5667 5664 5662 5661 5659 5658 5656 5654 5652 5651 5649 5647 5645 5643 5641 5640 5638 5637 5635 5634 5632 5631 5629
5703 5699 5700 5699 5697 5695 5693 5690 5685 5680 5673 5668 5673 5673 5673 5668 5667 5667 5664 5661 5657 5654 5652 5651 5649 5647 5645 5643 5641 5639 5637 5636 5633 5631 5629 5627 5625 5624 5622 5621 5618 5616 5615 5613
5687 5685 5690 5685 5684 5682 5677 5673 5670 5665 5659 5653 5651 5656 5660 5654 5653 5652 5649 5646 5643 5641 5638 5637 5635 5633 5631 5629 5627 5625 5623 5620 5618 5616 5613 5612 5610 5608 5606 5604 5602 5600 5598 5597
5670 5665 5669 5671 5667 5664 5660 5659 5656 5648 5647 5640 5632 5635 5649 5643 5638 5635 5634 5631 5627 5626 5624 5622 5619 5617 5615 5613 5611 5608 5606 5604 5602 5600 5597 5595 5592 5590 5588 5586 5584 5583 5581 5582
5655 5648 5647 5651 5651 5648 5644 5643 5638 5633 5627 5622 5616 5621 5632 5627 5623 5621 5618 5614 5611 5609 5607 5605 5603 5601 5599 5597 5594 5592 5590 5587 5585 5582 5580 5577 5575 5572 5571 5569 5569 5567 5565 5563
5635 5632 5630 5631 5633 5627 5625 5625 5624 5617 5606 5605 5602 5604 5615 5608 5606 5604 5600 5597 5596 5593 5591 5589 5586 5584 5583 5580 5578 5575 5572 5570 5568 5565 5563 5560 5558 5555 5554 5552 5551 5549 5546 5544
5617 5612 5611 5613 5616 5607 5607 5607 5609 5600 5596 5589 5592 5586 5597 5593 5589 5585 5581 5580 5578 5576 5574 5572 5570 5568 5565 5563 5560 5558 5556 5553 5550 5546 5543 5541 5538 5536 5535 5533 5532 5530 5527 5526
5602 5594 5593 5588 5596 5590 5584 5587 5588 5583 5581 5576 5572 5566 5581 5574 5567 5564 5562 5560 5557 5555 5554 5552 5550 5548 5546 5543 5540 5538 5535 5532 5529 5526 5523 5520 5518 5516 5514 5513 5512 5509 5506 5505
5583 5580 5577 5569 5580 5570 5559 5570 5571 5567 5566 5559 5550 5555 5556 5552 5548 5546 5544 5541 5537 5535 5533 5531 5529 5527 5524 5522 5520 5518 5516 5514 5510 5507 5503 5500 5498 5496 5494 5492 5491 5489 5488 5486
5565 5563 5557 5552 5556 5544 5550 5548 5544 5543 5540 5538 5535 5531 5534 5532 5528 5525 5522 5520 5517 5515 5513 5510 5508 5507 5505 5503 5500 5499 5497 5494 5490 5485 5483 5480 5478 5477 5475 5473 5470 5468 5468 5466
5546 5544 5538 5536 5534 5534 5532 5527 5527 5521 5521 5518 5515 5512 5510 5506 5504 5500 5500 5500 5498 5496 5494 5491 5488 5487 5486 5482 5481 5479 5476 5472 5468 5465 5464 5462 5460 5458 5455 5453 5451 5449 5445 5441
5529 5527 5528 5522 5518 5515 5504 5505 5501 5501 5499 5499 5495 5493 5492 5487 5483 5479 5479 5479 5479 5478 5476 5474 5471 5469 5466 5464 5462 5460 5457 5455 5451 5448 5445 5442 5441 5438 5435 5432 5428 5424 5421 5416
5501 5506 5505 5501 5497 5494 5491 5485 5487 5484 5481 5476 5473 5470 5468 5465 5464 5460 5460 5460 5460 5459 5458 5456 5454 5452 5450 5448 5445 5442 5440 5437 5434 5430 5425 5422 5418 5415 5412 5409 5405 5402 5397 5394
5478 5480 5482 5480 5478 5478 5478 5473 5474 5467 5460 5459 5456 5455 5453 5450 5447 5447 5446 5445 5443 5442 5442 5440 5437 5435 5433 5432 5429 5425 5423 5420 5415 5410 5404 5401 5398 5395 5392 5387 5383 5379 5376 5370
5465 5465 5463 5463 5459 5457 5454 5457 5457 5452 5450 5446 5444 5443 5441 5437 5437 5436 5432 5430 5430 5428 5425 5425 5421 5418 5417 5415 5412 5408 5403 5399 5395 5391 5386 5381 5377 5373 5368 5365 5361 5357 5351 5347
5452 5450 5449 5448 5447 5444 5442 5441 5440 5437 5434 5433 5432 5429 5427 5425 5422 5422 5418 5416 5414 5414 5412 5410 5406 5402 5398 5395 5391 5388 5383 5380 5375 5369 5364 5358 5355 5350 5346 5341 5337 5332 5329 5326
5447 5444 5442 5440 5437 5434 5432 5429 5427 5424 5422 5420 5419 5418 5415 5412 5410 5407 5404 5403 5401 5399 5395 5394 5390 5385 5379 5374 5369 5364 5361 5358 5354 5348 5342 5337 5333 5328 5322 5316 5314 5312 5309 5304
5439 5436 5435 5431 5430 5427 5424 5421 5417 5415 5414 5412 5410 5407 5404 5401 5398 5396 5391 5387 5384 5381 5377 5373 5370 5365 5358 5353 5348 5341 5337 5335 5331 5326 5320 5315 5310 5305 5300 5298 5295 5289 5285 5280